Messwerte Savannah

Temperatur

Temperatur
°C
1614715200 15.00 15.00 12
1614718800 16.00 16.00 11
1614722400 17.00 17.00
1614726000 18.00 18.00 9
1614729600 19.00 19.00 8
1614733200 20.00 20.00 8
1614736800 21.00 21.00 8
1614740400 22.00 22.00 8
1614744000 23.00 23.00 8
1614747600 0.00 0.00 8
1614751200 1.00 1.00 8
1614754800 2.00 2.00 9
1614758400 3.00 3.00 9
1614762000 4.00 4.00 8
1614765600 5.00 5.00
1614769200 6.00 6.00 8
1614772800 7.00 7.00 9
1614776400 8.00 8.00 9
1614780000 9.00 9.00 9
1614783600 10.00 10.00 10
1614787200 11.00 11.00 9
1614790800 12.00 12.00 10
1614794400 13.00 13.00 11
1614798000 14.00 14.00 13

Aktuellste Messwerte

Wettercharakter
Wetter: bedeckt
Temperatur
14 °C
Feuchtigkeit
70 %
Wind
20 km/hWindrichtung: Nord
Böen
30 km/h
Luftdruck
1015 hPa
Messzeit: 3. März 2021, 15.00Datenquelle: METAR

Weitere Messstationen in der Nähe

Messstation Temperatur Entfernung
Hunter U. S. Army Airfield 14 °C 14 km
Fort Stewart 13 °C 45 km
Hilton Head Island 15 °C 48 km
Beaufort 15 °C 60 km
Statesboro 16 °C 64 km
Sylvania 16 °C 69 km
Brunswick GA 11 °C 100 km

Wind

Windrichtung Böen Mittelwind
° km/h km/h
1614715200 15.00 14.00 - 15.00 40° 15
1614718800 16.00 15.00 - 16.00 100° 15
1614722400 17.00 16.00 - 17.00
1614726000 18.00 17.00 - 18.00 60° 20
1614729600 19.00 18.00 - 19.00 80° 25
1614733200 20.00 19.00 - 20.00 50° 15
1614736800 21.00 20.00 - 21.00 30° 15
1614740400 22.00 21.00 - 22.00 40° 20
1614744000 23.00 22.00 - 23.00 40° 20
1614747600 0.00 23.00 - 0.00 60° 20
1614751200 1.00 0.00 - 1.00 60° 15
1614754800 2.00 1.00 - 2.00 350° 15
1614758400 3.00 2.00 - 3.00 10° 15
1614762000 4.00 3.00 - 4.00 10° 15
1614765600 5.00 4.00 - 5.00
1614769200 6.00 5.00 - 6.00 50° 40 25
1614772800 7.00 6.00 - 7.00 20° 15
1614776400 8.00 7.00 - 8.00 340° 25
1614780000 9.00 8.00 - 9.00 340° 20
1614783600 10.00 9.00 - 10.00 360° 20
1614787200 11.00 10.00 - 11.00 360° 40 25
1614790800 12.00 11.00 - 12.00 330° 20
1614794400 13.00 12.00 - 13.00 350° 20
1614798000 14.00 13.00 - 14.00 350° 20

Ihre Wetterstation

Fehlt Ihre Wetterstation auf unserem Portal?

Schreiben Sie an network@meteonews.ch

Klima

Wann ist es am wärmsten? Wann regnet es am wenigsten? Unsere Klimadaten geben Auskunft.